Simultaneous Nadir Overpasses (SNOs) Predictions

Prediction of SNOs near US between AQUA and NPP Satellite Orbit:

Table of predicted SNOs near US for the next 10.0 days since TLE Epoch: 2/26/2016
Index Date (AQUA) Time (AQUA) AQUA Lat,Lon Date (NPP) Time (NPP) NPP Lat,Lon Distance(km) Time Diff (sec)
1 02/28/2016 19:06:40 49.94, -92.57 02/28/2016 19:02:23 49.66, -94.32 128.87 257
2 02/28/2016 20:45:34 49.99,-117.32 02/28/2016 20:43:52 49.62,-119.67 174.04 102
3 03/02/2016 08:35:22 20.15,-101.88 03/02/2016 08:27:04 20.16,-101.94 6.89 498
4 03/02/2016 10:11:44 29.25,-124.37 03/02/2016 10:05:57 29.34,-124.95 57.24 347
5 03/05/2016 07:19:08 49.92, -76.00 03/05/2016 07:21:18 50.34, -78.12 157.98 130
6 03/05/2016 08:58:01 49.93,-100.72 03/05/2016 09:02:46 50.45,-103.44 202.44 285
7 03/07/2016 18:17:19 49.96, -80.23 03/07/2016 18:11:33 49.70, -81.63 105.02 346




NCC Satellite Simultaneous Nadir Overpasses (SNOs) Prediction Service
